Regional Weather Roundup
Issued by NWS Midland/Odessa, TX

Skip options and go directly to product.
Home | Oldest Version | Previous Version | Current Version | All | Text Only | Save Text | Print | Product List | Glossary On

Skip product version selection by date and time.   
386
ASUS44 KMAF 230410
RWRMAF
MIDLAND AREA WEATHER ROUNDUP
NATIONAL WEATHER SERVICE MIDLAND TX
1000 PM CST SUN JAN 22 2017

...IN SOUTHWEST TEXAS AND SOUTHEAST NEW MEXICO...

CITY           SKY/WX    TMP DP  RH WIND       PRES   REMARKS
ALPINE         CLEAR     46  21  36 SW9       30.19R
ANDREWS        FAIR      45  19  36 NW8       30.04F
ARTESIA        CLEAR     45  23  42 W9        30.04F WCI  40
BIG SPRING     CLEAR     46  29  51 W5        30.05S
CARLSBAD       CLEAR     51  23  33 W17       30.03S
DRYDEN           N/A     48  20  32 S5        30.05S
FORT STOCKTON  CLEAR     45  22  40 SW10      30.09R WCI  40
GUAD PASS      CLEAR     40  23  50 SW31G44   30.08S WCI  28
HOBBS          NOT AVBL
MARFA          CLOUDY    35  23  61 W5        30.17R WCI  31
MIDLAND AIRPK  CLEAR     48  21  34 CALM      30.04S
MIDLAND INTL   CLEAR     44  24  45 W8        30.04R WCI  39
ODESSA         CLEAR     45  22  40 W9        30.05S
PECOS          CLEAR     46  27  46 SW9       30.07S
PRESIDIO       FAIR      52  21  30 W5        30.13S
SEMINOLE       CLEAR     42  22  44 W8        30.06R WCI  38
SNYDER         CLEAR     46  32  58 N6        30.02S
WINK           CLEAR     45  24  43 W7        30.05R
$$
...OTHER STATIONS IN TEXAS...

CITY           SKY/WX    TMP DP  RH WIND       PRES   REMARKS
ABILENE        CLEAR     42  32  67 S3        30.02R
AMARILLO       CLEAR     40  25  55 E5        30.00S WCI  37
AUSTIN         PTCLDY    57  33  40 W6        29.97R
BROWNSVILLE    CLEAR     65  29  25 N7        29.99R
CORPUS CHRISTI PTCLDY    56  33  42 NW8       29.99R
DALLAS FTW     PTCLDY    53  38  56 NW14      29.91R
DEL RIO        CLEAR     48  32  53 N3        30.03R
EL PASO        CLEAR     50  24  36 SE5       30.11S
HOUSTON INT    CLEAR     62  37  39 NW14      29.86R
LUBBOCK        CLEAR     42  30  62 CALM      30.01R
SAN ANGELO     CLEAR     46  31  55 W8        30.01S
SAN ANTONIO    CLEAR     51  35  54 NW7       30.00R
WACO           CLEAR     51  37  58 W10       29.95R
WICHITA FALLS  NOT AVBL
$$
...OTHER LOCATIONS IN NEW MEXICO...

CITY           SKY/WX    TMP DP  RH WIND       PRES   REMARKS
ALAMAGORDO     CLOUDY    39  25  56 E8        30.12S WCI  34
ALBUQUERQUE    CLOUDY    38  30  73 CALM      30.12F
CANNON AFB     CLOUDY    43  16  33 W13       30.00F WCI  37
CLOVIS         CLOUDY    39  19  45 W10       30.00S WCI  32
HOLLOMAN AFB   CLEAR     38  28  67 E6        30.14F WCI  34
ROSWELL        CLEAR     43  19  38 E6        30.03F WCI  39
RUIDOSO        CLOUDY    36  18  48 NW6       30.10S WCI  31
SANTA FE       CLOUDY    34  21  59 W5        30.09R WCI  30
TRUTH OR CONSE CLEAR     40  30  67 SE3       30.09S
TUCUMCARI      CLEAR     35  21  56 SW8       29.97S WCI  29
$$

  • National Weather Service
  • Southern Region Headquarters
  • 819 Taylor Street, Room 10A06
  • Fort Worth, TX 76102
  • Page Author: NWS Fort Worth
  • Web Master: SR-SRH.Webmaster@noaa.gov
  •  
  • Page last modified: 30-Sep-2016 6:36 PM UTC
USA.gov is the U.S. government's official web portal to all federal, state and local government web resources and services.